New Castle, PA

11:06 AM EDT on March 24, 2017 (GMT -0400)
New Castle Municipal

Weather History for KUCP - December, 2013

Change the Weather History Date:

Saturday, December 28, 2013

  Actual Average Record
Temperature  
Mean Temperature 42 °F -  
Max Temperature 50 °F 37 °F 70 °F (1982)
Min Temperature 34 °F 20 °F -13 °F (1950)
Degree Days  
Heating Degree Days 23    
Moisture  
Dew Point 27 °F    
Average Humidity 56    
Maximum Humidity 65    
Minimum Humidity 41    
Precipitation  
Precipitation 0.00 in - - ()
Sea Level Pressure  
Sea Level Pressure 30.21 in    
Wind  
Wind Speed 8 mph (SSW)    
Max Wind Speed 13 mph    
Max Gust Speed 17 mph    
Visibility 10 miles    
Events      
Averages and records for this station are not official NWS values.
T = Trace of Precipitation, MM = Missing Value Source: NWS Daily Summary

Daily Weather History Graph

Daily Weather History Graph

Search for Another Location

Airport or City:

Trip Planner

Search our weather history database for the weather conditions in past years. The results will help you decide how hot, cold, wet, or windy it might be!

Date:

Astronomy

Dec. 28, 2013 Rise Set
Actual Time 7:45 AM EST 5:00 PM EST
Civil Twilight 7:14 AM EST 5:32 PM EST
Nautical Twilight 6:40 AM EST 6:06 PM EST
Astronomical Twilight 6:06 AM EST 6:40 PM EST
Moon 3:20 AM EST (12/28) 1:51 PM EST (12/28)
Length of Visible Light 10h 17m
Length of Day
9h 14m
Waning Crescent, 19% of the Moon is Illuminated
Dec 28
Waning Crescent
Jan 1
New
Jan 7
First Quarter
Jan 15
Full
Jan 24
Last Quarter

Hourly Weather History & Observations

Time (EST) Temp. Windchill Dew Point Humidity Pressure Visibility Wind Dir Wind Speed Gust Speed Precip Events Conditions
12:56 AM 34.0 °F 28.0 °F 23.0 °F 64% 30.27 in 10.0 mi SSW 6.9 mph - N/A   Clear
1:56 AM 34.9 °F 27.7 °F 23.0 °F 62% 30.26 in 10.0 mi SW 9.2 mph - N/A   Partly Cloudy
2:56 AM 36.0 °F 29.0 °F 24.1 °F 62% 30.25 in 10.0 mi SW 9.2 mph - N/A   Overcast
3:56 AM 36.9 °F 29.6 °F 25.2 °F 63% 30.23 in 10.0 mi SW 10.4 mph - N/A   Overcast
4:56 AM 37.9 °F 30.5 °F 25.2 °F 60% 30.24 in 10.0 mi SSW 11.5 mph - N/A   Overcast
5:56 AM 36.9 °F 31.4 °F 25.2 °F 63% 30.25 in 10.0 mi SSW 6.9 mph - N/A   Overcast
6:56 AM 35.6 °F 28.6 °F 24.8 °F 65% 30.18 in 10.0 mi SSW 9.2 mph - N/A   Partly Cloudy
7:56 AM 36.0 °F 29.6 °F 24.1 °F 62% 30.27 in 10.0 mi SSW 8.1 mph - N/A   Clear
8:56 AM 37.9 °F 32.1 °F 25.2 °F 60% 30.28 in 10.0 mi SSW 8.1 mph - N/A   Clear
9:56 AM 39.9 °F 33.4 °F 27.1 °F 60% 30.27 in 10.0 mi SW 10.4 mph 17.3 mph N/A   Clear
10:56 AM 43.0 °F 36.4 °F 28.0 °F 56% 30.26 in 10.0 mi SW 12.7 mph - N/A   Clear
11:56 AM 46.9 °F - 30.0 °F 52% 30.23 in 10.0 mi SW 9.2 mph - N/A   Clear
12:56 PM 48.9 °F - 30.0 °F 48% 30.19 in 10.0 mi SW 12.7 mph 17.3 mph N/A   Clear
1:56 PM 50.0 °F - 30.0 °F 46% 30.17 in 10.0 mi SW 10.4 mph - N/A   Clear
2:56 PM 50.9 °F - 28.0 °F 41% 30.17 in 10.0 mi SW 10.4 mph 16.1 mph N/A   Clear
3:56 PM 50.0 °F - 28.0 °F 43% 30.17 in 10.0 mi SSW 10.4 mph 17.3 mph N/A   Clear
4:56 PM 46.9 °F - 28.0 °F 48% 30.19 in 10.0 mi Variable 6.9 mph - N/A   Clear
5:56 PM 45.0 °F 41.8 °F 28.0 °F 52% 30.17 in 10.0 mi South 5.8 mph - N/A   Clear
6:56 PM 43.0 °F 38.8 °F 28.0 °F 56% 30.18 in 10.0 mi SSW 6.9 mph - N/A   Clear
7:56 PM 43.0 °F 38.8 °F 28.0 °F 56% 30.18 in 10.0 mi South 6.9 mph - N/A   Clear
8:56 PM 41.9 °F 39.0 °F 27.1 °F 56% 30.17 in 10.0 mi South 4.6 mph - N/A   Clear
9:56 PM 41.9 °F - 26.1 °F 53% 30.15 in 10.0 mi Calm Calm - N/A   Clear
10:56 PM 41.9 °F - 25.2 °F 52% 30.11 in 10.0 mi Calm Calm - N/A   Clear
11:56 PM 41.0 °F 38.0 °F 25.2 °F 53% 30.09 in 10.0 mi Variable 4.6 mph - N/A   Clear